Temp
-16 -16 -16 -16 -16 -16 -16 -16 -16 -16 -16 -16 -16 -16 -16 -16 -16 -15 -15 -15 -15 -15 -15 -14 -14 -14 -14 -14 -14 -14 -14 -14 -14 -14 -14 -14 -14 -14 -14 -14 -14 -14
-17 -17 -17 -17 -16 -16 -16 -16 -16 -16 -16 -16 -16 -16 -16 -16 -16 -16 -16 -16 -15 -15 -15 -15 -15 -14 -14 -14 -14 -14 -14 -14 -14 -14 -14 -14 -14 -14 -14 -14 -14 -14
-17 -17 -17 -17 -17 -17 -17 -16 -16 -16 -16 -16 -16 -16 -16 -16 -16 -16 -16 -16 -16 -16 -16 -15 -15 -15 -15 -15 -15 -15 -14 -14 -14 -14 -14 -14 -14 -14 -14 -14 -14 -14
-18 -18 -18 -17 -17 -17 -17 -17 -17 -17 -16 -16 -16 -16 -16 -16 -16 -16 -16 -16 -16 -16 -16 -16 -16 -16 -16 -15 -15 -15 -15 -15 -15 -15 -15 -15 -15 -15 -14 -14 -14 -14
-18 -18 -18 -18 -18 -17 -17 -17 -17 -17 -17 -17 -16 -16 -16 -16 -16 -16 -16 -16 -16 -16 -16 -16 -16 -16 -16 -16 -16 -16 -16 -15 -15 -15 -15 -15 -15 -15 -15 -15 -15 -14
-18 -17 -17 -18 -18 -18 -18 -17 -17 -17 -17 -17 -17 -17 -16 -16 -16 -16 -16 -16 -16 -16 -16 -16 -16 -16 -16 -16 -16 -16 -16 -16 -16 -16 -15 -15 -15 -15 -15 -15 -15 -15
-18 -18 -18 -18 -18 -18 -18 -18 -17 -17 -17 -17 -17 -17 -17 -17 -16 -16 -16 -17 -17 -17 -16 -16 -16 -16 -16 -16 -16 -16 -16 -16 -16 -16 -16 -16 -15 -15 -15 -15 -15 -15
-18 -18 -18 -18 -18 -18 -18 -18 -18 -17 -17 -17 -17 -17 -17 -17 -17 -17 -17 -17 -17 -17 -17 -17 -17 -17 -17 -17 -17 -16 -16 -16 -16 -16 -16 -16 -16 -16 -15 -15 -15 -15
-19 -19 -19 -18 -18 -18 -18 -18 -18 -18 -17 -17 -17 -17 -17 -17 -17 -17 -17 -17 -17 -17 -17 -17 -17 -17 -17 -17 -17 -17 -17 -17 -17 -16 -16 -16 -16 -16 -16 -15 -15 -15
-19 -19 -19 -19 -18 -18 -18 -18 -18 -18 -18 -17 -17 -17 -18 -18 -18 -18 -18 -17 -17 -17 -18 -17 -17 -17 -17 -17 -17 -17 -17 -17 -17 -17 -17 -17 -16 -16 -16 -16 -16 -16
-19 -19 -19 -19 -19 -18 -18 -18 -18 -18 -18 -17 -17 -17 -18 -18 -18 -18 -18 -18 -18 -18 -18 -18 -18 -18 -18 -18 -17 -17 -17 -17 -17 -17 -17 -17 -17 -17 -16 -16 -16 -16
-19 -19 -19 -19 -19 -18 -18 -18 -18 -18 -17 -17 -17 -17 -18 -18 -18 -18 -18 -18 -18 -18 -18 -18 -18 -18 -18 -18 -18 -18 -18 -18 -18 -18 -17 -17 -17 -17 -17 -17 -17 -17
-19 -19 -19 -19 -19 -18 -18 -18 -18 -18 -18 -17 -17 -18 -18 -18 -18 -18 -18 -18 -18 -18 -18 -18 -18 -18 -18 -18 -18 -18 -18 -18 -18 -18 -18 -18 -18 -17 -17 -17 -17 -17
-19 -19 -19 -19 -19 -18 -18 -18 -19 -18 -18 -18 -18 -18 -18 -18 -18 -18 -18 -18 -18 -18 -18 -18 -18 -18 -18 -18 -18 -18 -18 -18 -18 -18 -18 -18 -18 -18 -18 -18 -17 -17
-19 -19 -19 -19 -19 -19 -19 -19 -19 -19 -19 -18 -18 -18 -18 -18 -18 -18 -18 -18 -18 -18 -18 -18 -18 -18 -18 -18 -18 -18 -18 -18 -18 -18 -18 -18 -18 -18 -18 -18 -18 -18
-19 -19 -19 -19 -19 -19 -19 -19 -19 -19 -19 -18 -19 -19 -19 -18 -18 -18 -18 -18 -18 -18 -18 -18 -18 -18 -18 -18 -18 -18 -18 -18 -18 -18 -18 -18 -18 -18 -18 -18 -18 -18
-19 -19 -19 -19 -19 -19 -19 -19 -19 -19 -19 -19 -19 -19 -19 -19 -19 -19 -19 -19 -18 -18 -18 -18 -18 -18 -19 -18 -18 -18 -18 -18 -18 -18 -18 -18 -18 -18 -18 -18 -18 -18
-19 -19 -19 -19 -19 -19 -19 -19 -19 -19 -19 -19 -19 -19 -19 -19 -19 -19 -19 -19 -19 -18 -18 -18 -19 -19 -19 -19 -18 -18 -18 -18 -18 -18 -18 -18 -18 -18 -18 -18 -18 -18
-19 -19 -19 -19 -19 -19 -19 -19 -19 -19 -19 -20 -19 -19 -19 -19 -20 -19 -19 -19 -19 -19 -19 -19 -19 -19 -19 -19 -19 -18 -18 -18 -18 -18 -18 -18 -18 -18 -18 -18 -18 -18
-20 -20 -20 -20 -20 -20 -19 -19 -19 -19 -19 -20 -20 -19 -19 -20 -20 -20 -20 -19 -19 -19 -19 -19 -19 -19 -19 -19 -19 -19 -18 -18 -18 -18 -18 -18 -18 -18 -18 -18 -18 -18
-20 -20 -20 -20 -20 -20 -20 -20 -20 -20 -20 -20 -20 -19 -20 -20 -20 -20 -20 -19 -19 -19 -19 -19 -19 -19 -19 -19 -19 -19 -19 -19 -19 -19 -19 -19 -19 -18 -18 -18 -18 -18
-20 -20 -20 -20 -20 -20 -20 -20 -20 -20 -20 -20 -20 -20 -20 -20 -20 -20 -19 -19 -19 -19 -20 -20 -20 -19 -19 -19 -19 -19 -19 -19 -19 -19 -18 -18 -19 -19 -19 -18 -18 -18
-21 -21 -20 -20 -20 -20 -20 -20 -20 -20 -20 -20 -20 -20 -20 -20 -20 -20 -19 -19 -19 -20 -20 -20 -20 -20 -20 -19 -19 -19 -19 -19 -19 -19 -18 -18 -19 -19 -19 -18 -18 -18
-21 -21 -21 -21 -20 -20 -20 -20 -20 -20 -20 -20 -20 -20 -20 -20 -20 -19 -19 -19 -19 -20 -20 -21 -21 -20 -20 -20 -19 -19 -19 -19 -19 -19 -19 -19 -19 -19 -19 -19 -19 -19
-21 -20 -20 -20 -20 -20 -20 -20 -20 -20 -20 -20 -20 -20 -20 -20 -19 -19 -19 -19 -20 -20 -21 -21 -21 -21 -20 -20 -20 -20 -19 -19 -19 -19 -19 -19 -19 -19 -19 -19 -19 -19
-21 -21 -20 -20 -20 -20 -20 -20 -20 -20 -20 -21 -21 -21 -20 -20 -20 -20 -20 -20 -21 -21 -21 -20 -20 -20 -20 -20 -20 -20 -20 -19 -19 -19 -19 -19 -19 -19 -19 -19 -19 -19
Height
5725 5725 5725 5726 5726 5726 5726 5726 5726 5726 5726 5727 5727 5728 5729 5730 5731 5731 5732 5733 5735 5736 5737 5737 5738 5738 5739 5739 5740 5740 5741 5742 5743 5744 5745 5746 5746 5747 5748 5749 5749 5750
5723 5723 5723 5723 5724 5724 5724 5724 5724 5724 5724 5724 5725 5726 5727 5727 5728 5728 5729 5730 5731 5732 5733 5734 5735 5736 5736 5737 5737 5738 5738 5739 5740 5740 5741 5742 5743 5744 5745 5745 5746 5746
5720 5720 5720 5720 5721 5721 5722 5722 5722 5722 5722 5722 5723 5723 5724 5725 5725 5726 5726 5727 5727 5728 5729 5730 5731 5732 5733 5734 5734 5735 5735 5736 5736 5737 5737 5738 5739 5740 5741 5742 5742 5743
5717 5717 5717 5717 5718 5718 5719 5719 5720 5720 5720 5721 5721 5721 5722 5722 5723 5724 5724 5724 5725 5725 5726 5727 5728 5729 5730 5730 5731 5732 5732 5733 5733 5733 5733 5734 5734 5735 5736 5737 5738 5739
5714 5714 5714 5714 5715 5715 5715 5716 5716 5717 5718 5718 5718 5719 5719 5720 5720 5721 5721 5722 5722 5723 5723 5724 5725 5725 5726 5727 5728 5729 5729 5730 5730 5730 5730 5731 5731 5731 5731 5732 5733 5734
5710 5711 5711 5712 5712 5712 5713 5713 5713 5714 5715 5715 5716 5716 5717 5717 5718 5718 5719 5719 5719 5720 5720 5721 5722 5722 5723 5723 5724 5725 5726 5726 5727 5727 5727 5728 5728 5728 5728 5728 5728 5729
5707 5707 5708 5709 5710 5710 5710 5710 5710 5711 5711 5712 5712 5713 5714 5715 5715 5716 5716 5716 5717 5717 5718 5718 5718 5719 5719 5720 5720 5721 5721 5722 5722 5723 5724 5724 5724 5725 5725 5725 5725 5725
5704 5704 5704 5705 5706 5707 5708 5708 5708 5708 5709 5710 5710 5710 5711 5712 5713 5713 5713 5714 5714 5714 5715 5715 5715 5715 5716 5716 5716 5717 5717 5717 5718 5718 5719 5720 5720 5721 5721 5721 5722 5722
5702 5701 5701 5701 5702 5703 5704 5705 5705 5705 5706 5707 5707 5708 5708 5709 5710 5710 5711 5711 5711 5711 5712 5712 5712 5712 5712 5712 5712 5712 5713 5713 5713 5713 5714 5714 5715 5715 5716 5716 5717 5717
5699 5698 5697 5698 5698 5699 5700 5701 5701 5702 5702 5703 5704 5705 5705 5706 5706 5707 5707 5707 5708 5708 5708 5708 5708 5708 5708 5708 5708 5708 5708 5709 5709 5709 5709 5709 5709 5710 5710 5711 5712 5712
5695 5695 5695 5695 5695 5695 5696 5697 5697 5698 5698 5698 5699 5700 5701 5702 5702 5703 5703 5703 5704 5704 5704 5705 5705 5705 5705 5705 5704 5705 5705 5704 5704 5704 5704 5704 5704 5705 5705 5706 5706 5707
5691 5691 5692 5692 5692 5692 5692 5692 5692 5693 5693 5694 5694 5695 5696 5697 5698 5698 5698 5699 5699 5699 5699 5700 5701 5701 5701 5701 5701 5701 5701 5700 5700 5700 5699 5699 5700 5700 5701 5701 5701 5701
5687 5687 5687 5687 5688 5688 5688 5688 5687 5686 5687 5688 5689 5690 5691 5692 5692 5693 5693 5693 5693 5693 5694 5694 5695 5695 5696 5696 5696 5696 5696 5696 5695 5695 5695 5695 5695 5695 5696 5696 5696 5696
5681 5682 5682 5683 5683 5684 5684 5684 5682 5680 5680 5682 5683 5684 5684 5685 5686 5687 5687 5687 5687 5687 5687 5688 5688 5689 5690 5690 5691 5691 5691 5691 5691 5691 5691 5691 5690 5690 5690 5690 5691 5691
5675 5676 5676 5677 5678 5679 5679 5679 5678 5675 5675 5676 5677 5678 5678 5679 5679 5680 5680 5681 5681 5681 5681 5682 5682 5683 5683 5684 5684 5685 5685 5686 5686 5686 5686 5686 5685 5685 5685 5685 5685 5685
5668 5669 5670 5671 5672 5673 5673 5673 5672 5671 5670 5671 5671 5672 5672 5672 5672 5673 5673 5674 5674 5675 5675 5675 5676 5677 5677 5677 5678 5678 5679 5680 5680 5680 5680 5680 5680 5680 5679 5679 5679 5679
5661 5662 5663 5664 5665 5666 5666 5666 5666 5666 5665 5664 5664 5665 5665 5665 5666 5666 5667 5667 5668 5669 5669 5669 5670 5670 5671 5671 5671 5672 5673 5673 5673 5674 5674 5674 5674 5674 5674 5673 5673 5673
5655 5655 5656 5657 5657 5658 5659 5659 5659 5660 5659 5657 5658 5659 5659 5659 5660 5660 5660 5661 5662 5663 5663 5663 5663 5663 5664 5665 5665 5666 5666 5666 5666 5667 5668 5668 5668 5668 5668 5667 5667 5667
5647 5648 5649 5650 5650 5650 5651 5652 5652 5653 5652 5651 5651 5653 5653 5653 5654 5654 5653 5654 5655 5656 5657 5657 5656 5657 5657 5658 5659 5659 5659 5659 5660 5660 5661 5661 5661 5661 5661 5661 5661 5661
5639 5640 5641 5642 5642 5642 5642 5643 5644 5644 5644 5644 5645 5645 5647 5647 5647 5648 5649 5649 5649 5650 5650 5650 5650 5650 5651 5651 5652 5652 5652 5652 5653 5653 5654 5654 5654 5654 5654 5654 5654 5654
5631 5631 5632 5633 5634 5634 5634 5635 5636 5636 5637 5638 5639 5639 5640 5640 5640 5642 5643 5643 5643 5643 5643 5643 5643 5644 5644 5645 5645 5645 5645 5645 5646 5646 5646 5646 5647 5647 5647 5647 5647 5647
5623 5623 5624 5625 5625 5626 5626 5627 5628 5628 5630 5632 5632 5633 5633 5634 5634 5635 5635 5636 5636 5636 5636 5635 5636 5637 5637 5637 5638 5638 5639 5639 5639 5639 5639 5639 5639 5639 5639 5640 5639 5639
5614 5615 5616 5617 5617 5618 5619 5619 5620 5620 5622 5624 5625 5625 5626 5628 5628 5628 5628 5628 5628 5629 5629 5628 5628 5629 5629 5630 5630 5631 5632 5632 5632 5632 5632 5631 5631 5631 5632 5632 5632 5631
5606 5607 5608 5609 5610 5610 5611 5612 5612 5613 5614 5615 5617 5618 5619 5620 5621 5621 5621 5621 5622 5622 5622 5622 5622 5622 5622 5623 5623 5624 5624 5625 5625 5625 5625 5624 5624 5624 5625 5624 5624 5623
5598 5599 5600 5601 5602 5603 5604 5605 5605 5606 5606 5608 5609 5610 5612 5613 5614 5614 5614 5615 5616 5616 5616 5616 5616 5616 5616 5616 5616 5616 5616 5617 5617 5617 5617 5617 5617 5617 5617 5617 5616 5615
5590 5590 5592 5593 5594 5595 5596 5597 5598 5599 5599 5601 5603 5604 5605 5606 5606 5608 5609 5609 5609 5609 5609 5609 5610 5610 5610 5610 5610 5609 5609 5610 5610 5609 5609 5610 5610 5610 5610 5610 5609 5607
Wind_Speed
24 25 25 25 25 25 25 24 24 24 24 24 23 23 22 21 21 21 20 19 19 20 20 21 22 22 22 23 23 23 23 23 23 23 23 24 24 25 25 26 27 27
25 26 27 26 26 26 26 25 25 25 26 26 25 24 22 21 20 20 20 20 20 20 20 21 22 22 23 23 23 23 23 24 24 23 24 24 24 25 26 26 27 27
24 26 27 28 28 28 27 27 26 26 27 27 27 26 24 23 21 21 20 20 20 21 21 21 21 22 22 23 23 24 24 24 25 25 25 25 25 26 26 27 27 28
22 23 25 27 29 29 29 29 27 27 28 28 29 29 27 25 24 23 22 21 21 21 22 22 22 22 23 23 24 24 24 25 25 26 27 27 27 27 28 28 29 29
23 23 23 24 25 27 29 30 30 29 29 29 30 30 30 29 27 26 25 24 24 24 24 24 24 24 25 25 25 26 26 26 27 28 28 29 29 30 30 31 31 32
25 26 26 25 24 24 25 27 28 29 30 31 32 32 32 31 30 29 28 27 27 27 27 27 27 27 27 28 28 28 28 28 29 30 30 31 31 32 32 33 34 35
27 27 27 27 26 25 24 24 25 26 27 29 31 32 33 33 33 32 31 30 30 30 30 29 29 29 30 30 30 30 30 31 31 32 32 33 33 34 34 35 36 37
29 30 29 28 28 27 26 26 26 26 26 26 28 29 31 32 33 34 34 33 33 33 32 32 32 32 32 32 32 33 33 33 34 34 34 35 36 36 37 37 38 38
29 31 31 30 29 30 30 31 30 30 29 28 28 28 29 29 30 32 33 34 34 34 34 34 34 34 34 34 34 34 35 35 35 36 36 37 37 38 39 39 40 40
30 32 33 32 31 30 32 34 34 34 33 31 29 28 29 30 30 30 31 32 32 32 33 34 35 35 35 35 35 34 35 35 35 36 36 37 38 38 39 40 40 41
33 34 35 35 34 33 32 34 35 35 35 33 31 29 29 30 31 31 31 31 31 31 32 33 34 35 35 35 35 34 33 33 34 35 36 37 37 37 37 37 37 38
36 36 36 37 37 36 36 37 37 37 37 37 36 35 34 32 32 33 32 32 32 33 33 34 34 35 36 35 35 35 33 33 33 34 35 36 36 35 35 33 32 32
39 38 38 38 38 38 39 40 43 44 42 41 41 41 40 38 36 36 35 34 34 35 36 35 35 36 37 37 36 35 34 34 34 34 34 33 33 32 31 29 28 27
43 41 40 40 40 40 40 41 45 47 47 46 44 43 43 42 41 38 37 37 37 38 39 38 37 36 37 37 37 37 36 36 35 35 34 33 32 31 30 29 28 28
48 46 44 43 42 43 42 42 45 49 49 47 44 43 44 46 44 42 42 42 42 41 42 41 39 38 38 38 38 38 38 38 38 37 36 34 33 33 32 31 31 31
52 50 49 47 45 44 45 46 48 50 51 51 50 48 48 49 48 47 47 47 44 43 42 41 39 39 40 40 41 40 40 40 40 39 39 37 36 35 35 34 34 34
54 53 53 51 49 48 49 50 51 52 52 53 52 50 49 50 49 50 50 47 45 43 41 40 39 39 40 42 43 43 43 42 42 42 42 41 40 39 38 38 37 37
57 57 56 55 54 54 53 53 53 53 54 54 51 49 49 50 50 51 52 49 46 44 42 42 42 42 43 43 43 44 45 44 43 43 44 44 44 43 42 41 40 39
62 61 60 59 58 58 57 56 55 55 56 57 56 54 53 52 50 49 49 48 46 44 43 44 45 44 44 44 43 43 45 47 46 45 45 47 47 47 46 44 42 41
63 62 61 60 59 58 58 57 56 56 55 54 54 55 55 55 54 50 45 43 43 45 47 48 47 46 45 45 45 45 46 48 48 46 46 48 49 49 49 47 45 44
63 62 61 59 58 58 59 59 58 58 56 52 49 49 48 49 53 53 50 49 50 52 51 51 50 50 50 50 50 49 46 45 46 45 46 48 49 51 51 49 47 46
62 62 61 60 60 59 60 60 60 60 59 57 54 52 50 48 49 50 51 52 54 52 50 51 53 53 54 54 54 52 48 44 43 44 45 47 49 51 51 50 49 48
61 61 62 62 62 61 61 61 62 61 60 59 59 58 57 54 53 53 53 53 53 50 48 51 53 55 55 54 54 53 51 49 47 46 47 47 48 49 50 50 50 49
59 59 60 61 62 63 62 62 62 62 61 60 59 57 56 55 55 57 58 58 57 52 46 45 46 47 49 50 51 52 52 52 52 50 49 47 48 49 50 50 50 51
58 58 58 59 60 61 62 62 61 61 61 58 56 55 54 53 53 54 55 57 57 51 43 41 41 42 42 44 47 49 50 51 52 51 48 47 47 49 50 50 51 54
57 57 56 57 58 58 59 60 60 61 60 56 51 49 48 48 49 49 49 50 48 43 40 42 44 45 45 44 44 45 47 48 49 48 46 45 46 47 49 51 54 58
Wind_Direction
272 272 270 269 268 266 263 261 260 259 259 260 261 262 262 262 262 262 260 257 253 248 245 244 244 245 246 247 248 250 252 253 253 253 251 251 251 252 252 252 253 253
272 273 272 271 270 268 266 264 263 262 261 260 260 259 257 256 257 259 260 259 256 252 248 245 244 244 245 246 246 247 249 250 251 252 252 251 251 251 252 253 254 255
273 273 273 272 271 269 268 266 265 265 265 264 263 261 258 255 252 252 254 256 257 256 254 251 248 247 247 247 248 249 249 251 252 253 253 254 253 252 252 252 253 254
273 274 274 273 272 270 269 267 266 265 265 265 265 264 263 259 255 252 251 251 253 254 255 255 253 252 251 250 250 251 253 254 255 257 258 259 259 258 257 256 255 255
269 271 272 273 273 272 270 268 267 265 265 265 265 266 265 264 261 258 256 254 253 253 254 255 255 254 253 252 252 251 252 253 254 256 258 259 261 263 263 262 261 260
271 270 270 271 273 272 270 269 268 266 265 265 265 265 266 266 265 264 262 260 259 258 257 257 257 257 256 255 254 253 253 252 253 253 254 256 257 259 262 263 264 264
274 273 272 272 272 270 269 269 269 267 266 266 266 266 266 266 266 266 266 266 265 264 262 261 261 261 261 260 259 259 258 257 256 256 256 256 257 257 258 260 262 264
275 275 275 274 271 268 267 270 273 272 271 269 269 269 269 269 268 267 267 267 268 268 266 265 264 264 263 263 263 262 262 262 261 261 260 259 259 259 259 259 260 261
275 277 277 275 272 269 268 270 274 277 278 276 273 272 272 271 271 270 268 267 267 268 267 267 266 265 264 264 264 264 264 264 265 265 265 265 264 264 263 263 263 263
271 275 278 278 277 275 272 272 273 276 278 279 279 279 277 273 273 273 273 271 269 268 268 267 265 263 263 262 262 263 265 266 267 267 267 267 267 268 268 268 268 268
272 273 275 278 279 280 280 278 275 274 275 275 278 282 282 277 273 273 274 274 272 269 268 268 266 263 261 260 261 262 264 266 267 267 267 267 268 268 269 270 271 271
276 276 276 276 278 281 283 283 281 277 274 273 274 277 279 277 274 272 272 273 273 271 269 268 267 264 261 261 262 263 265 265 265 265 266 267 268 269 269 270 271 272
275 277 276 275 276 278 281 283 282 279 276 273 273 275 276 275 274 271 271 273 274 271 270 269 267 264 263 264 265 266 267 266 265 264 264 265 266 267 267 268 269 272
271 274 274 274 274 275 276 278 278 278 278 277 274 275 276 275 273 269 267 272 274 270 269 269 266 264 264 267 269 270 270 269 267 265 263 263 263 263 263 264 267 271
271 274 274 273 273 273 273 274 274 275 277 276 274 276 279 277 273 268 266 271 273 270 268 267 265 264 264 266 268 270 271 272 270 268 264 262 261 261 262 263 266 270
271 273 274 273 272 272 272 272 271 272 274 273 272 275 278 276 273 271 270 271 272 269 265 263 264 266 267 266 266 267 269 271 272 271 269 265 262 262 263 264 267 270
270 271 272 273 272 271 270 269 269 270 271 272 272 275 276 274 273 273 271 270 269 266 262 261 264 268 269 269 268 268 268 268 269 270 271 270 267 264 263 265 267 270
269 270 271 272 271 270 268 267 267 267 268 269 271 273 274 275 275 273 270 267 266 264 262 263 264 266 268 269 270 270 269 267 267 269 270 271 269 267 265 265 267 270
268 269 269 269 269 269 268 266 266 266 266 268 269 269 270 273 275 273 270 265 264 267 269 269 267 265 266 268 270 273 273 268 266 267 268 269 269 268 266 265 267 270
268 268 267 267 266 266 266 265 265 265 265 267 268 267 268 270 271 272 270 265 267 274 275 272 269 266 266 268 271 276 277 269 264 266 269 269 270 269 267 266 267 270
266 266 266 266 265 264 265 265 265 265 266 267 268 268 268 270 271 271 270 267 271 276 274 270 269 268 268 270 271 276 277 269 263 267 271 270 270 269 267 266 268 270
264 264 265 265 265 265 265 265 266 266 267 266 266 267 269 270 271 271 270 270 272 274 273 270 268 267 268 269 270 273 272 266 265 271 274 272 270 268 266 266 268 270
262 262 262 263 263 263 264 265 266 267 267 267 267 268 268 268 269 269 270 272 273 274 273 272 269 267 267 267 268 269 267 264 266 273 277 274 269 267 265 266 268 271
262 261 261 261 261 262 262 263 264 266 267 268 268 269 269 269 268 267 267 271 272 270 270 271 269 268 267 267 267 267 265 264 266 272 275 273 268 265 265 266 268 273
264 263 261 260 260 261 261 262 263 264 266 268 268 270 271 270 267 266 269 271 267 262 264 269 270 269 268 268 267 267 265 265 266 269 271 269 265 264 265 267 271 277
265 264 263 262 261 261 261 261 262 263 265 267 269 271 272 270 267 268 269 267 262 261 268 273 272 270 268 268 268 269 269 268 266 266 267 265 264 266 268 271 275 279